Location: Newark
(45.8667°N, 9.7333°E)
Time: 01:48:55
(UTC+00:00)

ITAMSAT 1 - Pass Details

Date: 24 February 2020
Orbit: 784 x 796 km, 98.9° (Epoch: 08 April)

Event Time Altitude Azimuth Distance (km) Brightness Sun altitude
Rises 03:41:58 0° 32° (NNE) 3,308 11.5 -26.4°
Reaches altitude 10° 03:45:31 10° 57° (ENE) 2,373 11.0 -25.8°
Maximum altitude 03:48:13 14° 89° (E) 2,093 10.8 -25.3°
Drops below altitude 10° 03:50:55 10° 120° (ESE) 2,365 10.7 -24.8°
Sets 03:54:25 0° 145° (SE) 3,288 11.2 -24.2°
